Regional Weather Roundup
Issued by NWS

Home | Current Version | Previous Version | Graphics & Text | Print | Product List | Glossary On
Versions: 1 2 3 4 5 6 7 8 9 10 11 12 13 14 15 16 17 18 19 20 21 22 23 24 25 26 27 28 29 30 31 32 33 34 35 36 37 38 39 40 41 42 43 44 45 46 47 48 49 50
000
ASUS43 KIND 230209
RWRIN

WEATHER ROUNDUP FOR INDIANA
NATIONAL WEATHER SERVICE INDIANAPOLIS IN
900 PM EST MON DEC 22 2014

NOTE: "FAIR" INDICATES FEW OR NO CLOUDS BELOW 12,000 FEET WITH NO
SIGNIFICANT WEATHER AND/OR OBSTRUCTIONS TO VISIBILITY.

* - STATION DOES NOT REPORT WEATHER SUCH AS PRECIPITATION OR FOG.

+ - STATION NOT QUALITY CONTROLLED BY THE NATIONAL WEATHER SERVICE.
    USE DATA WITH CAUTION...ESPECIALLY DEWPOINT AND RELATIVE
    HUMIDITY OBSERVATIONS.

INZ001>003-010>013-019-020-230300-
NORTHWEST INDIANA

CITY           SKY/WX    TMP DP  RH WIND       PRES   REMARKS
GARY /AIRPORT/ LGT RAIN  41  37  87 SE14      29.67F
KNOX *+        CLOUDY    39  35  87 E14       29.70F
LA PORTE +     CLOUDY    39  39 100 SE12      29.71F FOG
MICHIGAN CITY+ RAIN      37  36  93 SE10G22   29.71F
MONTICELLO +   DRIZZLE   40  39  97 E8        29.68F
RENSSELAER +   LGT RAIN  41  41 100 E15       29.67F
VALPARAISO     CLOUDY    39  37  92 E12       29.70F FOG

$$

LMZ046-743>745-230300-
SOUTHERN LAKE MICHIGAN

STATION/POSITION TIME  TEMP WIND        PRES
                       AIR  DIR/SP/G
                 (UTC) (F)  (DEG/KT/KT) (MB)

$$

INZ004-005-014>016-021>024-230300-
NORTH CENTRAL INDIANA

CITY           SKY/WX    TMP DP  RH WIND       PRES   REMARKS
ELKHART        RAIN      37  34  87 E12       29.76F
GOSHEN         LGT RAIN  37  35  92 E14       29.75F FOG
LOGANSPORT +   DRIZZLE   37  36  93 E13       29.71F
PERU/GRISSOM   CLOUDY    40  40 100 E13       29.70F
ROCHESTER +    LGT RAIN  41  41 100 E13       29.72F
SOUTH BEND     LGT RAIN  38  35  89 E15       29.74F FOG
WARSAW +       LGT RAIN  36  36 100 E13G18    29.74F

$$

INZ006>009-017-018-025>027-230300-
NORTHEAST INDIANA

CITY           SKY/WX    TMP DP  RH WIND       PRES   REMARKS
ANGOLA *+      CLOUDY    34  32  93 E10       29.78F WCI  26
AUBURN +       DRIZZLE   36  32  87 E7        29.80S
FORT WAYNE     LGT RAIN  38  35  89 E13       29.78F FOG
HUNTINGTON +   LGT RAIN  37  36  96 E8        29.75F

$$

INZ028-029-035-036-043>045-051>053-230300-
WEST CENTRAL INDIANA

CITY           SKY/WX    TMP DP  RH WIND       PRES   REMARKS
GREENCASTLE +  CLOUDY    43  37  81 SE8       29.66F
LAFAYETTE      CLOUDY    42  39  89 E12       29.67F
TERRE HAUTE    LGT RAIN  47  44  90 SE10      29.64F

$$

INZ030>032-037>040-046>048-054>057-064-065-230300-
CENTRAL INDIANA

CITY           SKY/WX    TMP DP  RH WIND       PRES   REMARKS
CP ATTERBURY + CLOUDY    46  41  81 MISG      29.69F
FRANKFORT +    CLOUDY    41  41 100 E12       29.69F
INDIANAPOLIS   CLOUDY    44  39  82 SE14      29.67F
-EAGLE CREEK   CLOUDY    45  39  79 SE13      29.67F
KOKOMO *+      CLOUDY    39  36  87 E13       29.71F
MARION +       CLOUDY    40  37  87 E13       29.72F
MT COMFORT *+  CLOUDY    45  34  65 SE14G21   29.69F
SHELBYVILLE    CLOUDY    48  39  71 SE16      29.69F
ZIONSVILLE +   LGT RAIN  42  37  82 SE8       29.69F

$$

INZ033-034-041-042-049-050-058-059-230300-
EAST CENTRAL INDIANA

CITY           SKY/WX    TMP DP  RH WIND       PRES   REMARKS
MUNCIE         CLOUDY    43  38  82 SE14      29.72F

$$

INZ060-061-067>069-081>083-085>088-230300-
SOUTHWEST INDIANA

CITY           SKY/WX    TMP DP  RH WIND       PRES   REMARKS
EVANSVILLE     LGT RAIN  52  48  86 S6        29.65S
HUNTINGBURG *+ CLOUDY    50  45  81 SE9       29.67S
WASHINGTON +   CLOUDY    48  43  84 SE7       29.64F

$$

INZ062-063-066-070>080-084-089>092-230300-
SOUTH CENTRAL AND SOUTHEAST INDIANA

CITY           SKY/WX    TMP DP  RH WIND       PRES   REMARKS
BLOOMINGTON    CLOUDY    47  42  83 SE9       29.66F

$$



USA.gov is the U.S. government's official web portal to all federal, state and local government web resources and services.